Regional Weather Roundup
Issued by NWS

Home | Current Version | Previous Version | Graphics & Text | Print | Product List | Glossary On
Versions: 1 2 3 4 5 6 7 8 9 10 11 12 13 14 15 16 17 18 19 20 21 22 23 24 25 26 27 28 29 30 31 32 33 34 35 36 37 38 39 40 41 42 43 44 45 46 47 48 49 50
000
ASUS45 KBOU 121907
RWRCO

WEATHER ROUNDUP FOR COLORADO
NATIONAL WEATHER SERVICE DENVER/BOULDER CO
1200 PM MST FRI FEB 12 2016

NOTE: "FAIR" INDICATES FEW OR NO CLOUDS BELOW 12000 FEET WITH NO
SIGNIFICANT WEATHER AND/OR OBSTRUCTIONS TO VISIBILITY.

COZ001>005-013-030-031-122000-
...NORTHWEST COLORADO...

CITY           SKY/WX    TMP DP  RH WIND       PRES   REMARKS
CRAIG          MIX PCPN  26  18  71 SW8       30.42F WCI  18
HAYDEN         FAIR      34  18  51 E8        30.41F WCI  27
MEEKER         FAIR      37  21  52 CALM      30.40F
MOUNT WERNER   NOT AVBL
STEAMBOAT SPGS FAIR      29  17  59 CALM      30.42F
WALDEN         FAIR      41  19  42 S7        30.40F
$$

COZ006>008-011-122000-
...WEST CENTRAL VALLEYS...

CITY           SKY/WX    TMP DP  RH WIND       PRES   REMARKS
GRAND JUNCTION FAIR      42  27  55 E3        30.42F
MONTROSE       FAIR      44  23  43 CALM      30.44F
EAGLE          SUNNY     34  18  51 CALM      30.48F
RIFLE          FAIR      36  18  48 CALM      30.44F
DELTA          FAIR      47  23  38 CALM      30.44F
NUCLA          FAIR      43  23  45 CALM      30.46F
$$

COZ017>023-064>068-122000-
...SOUTHWEST COLORADO...

CITY           SKY/WX    TMP DP  RH WIND       PRES   REMARKS
DURANGO        FAIR      39  25  57 NE5       30.42F
CORTEZ         FAIR      47  23  38 S3        30.42F
PAGOSA SPRINGS FAIR      49  13  23 CALM      30.44F
TELLURIDE      FAIR      48  20  32 CALM      30.50F
WOLF CREEK PAS FAIR      39  14  35 N8        30.62F
$$

COZ009-010-012-014-032>034-037-058>063-122000-
...CENTRAL COLORADO...

CITY           SKY/WX    TMP DP  RH WIND       PRES   REMARKS
ASPEN          FAIR      42  22  44 NW6       30.42F
BUENA VISTA    FAIR      49  19  30 SE3       30.41F
COPPER MTN     FAIR      37  19  48 W18G30    30.53F
BERTHOUD PASS  FAIR      30  19  64 NW35G44   30.49R WCI  14
COTTONWOOD PAS FAIR      48  14  25 E7        30.47F
GUNNISON       FAIR       9   3  78 CALM      30.58F
KREMMLING      FAIR      19   9  63 CALM      30.49F
LEADVILLE      FAIR      43  20  39 NW10      30.46F
MONARCH PASS   FAIR      32  12  43 SW16G22   30.66S WCI  21
SALIDA         NOT AVBL
SUNLIGHT       FAIR      43  23  45 CALM      30.56
WILKERSON PASS FAIR      41  18  38 SW6       30.53F
$$

COZ069>075-122000-
...SAN LUIS VALLEY/SANGRE DE CRISTO MOUNTAINS...

CITY           SKY/WX    TMP DP  RH WIND       PRES   REMARKS
ALAMOSA        FAIR      46  19  34 CALM      30.45F
LA VETA PASS   FAIR      45  16  31 S7        30.49F
SAGUACHE       FAIR      46  16  29 CALM      30.47F
$$

COZ035-036-038>040-122000-
...NORTHERN COLORADO FRONT RANGE...

CITY           SKY/WX    TMP DP  RH WIND       PRES   REMARKS
DENVER INTL AP FAIR      50  28  42 N6        30.29F
DMNS CITY PARK   N/A     53  26  35 NE6G15    30.27F
AURORA         MOSUNNY   53  29  39 NE6       30.28F
FRONT RANGE AP MOSUNNY   48  30  49 MISG      30.30F
ERIE MUNI ARPT FAIR      48  28  47 NW6       30.30S
BOULDER MUN AP FAIR      50  28  43 N7        30.30S
CENTENNIAL     PTSUNNY   56  29  35 NE6       30.28F
BROOMFIELD     PTSUNNY   50  27  40 N7        30.30F
FORT COLLINS   FAIR      48  28  46 E3        30.32F
LONGMONT       FAIR      52  30  43 NE6       30.32F
$$

COZ041-046-047-076>085-087-088-122000-
...PIKES PEAK/PALMER DIVIDE AND SOUTHERN FOOTHILLS...

CITY           SKY/WX    TMP DP  RH WIND       PRES   REMARKS
COLO. SPRINGS  FAIR      50  26  39 SW3       30.33F
A. F. ACADEMY  FAIR      51  26  39 S10       30.31F
SCHRIEVER AFB  FAIR      50  24  36 SE3       30.33F
ELLICOTT       FAIR     N/A N/A N/A SW7       30.31F
FALCON         FAIR      51  25  37 CALM      30.35F
FORT CARSON    FAIR      49  26  40 CALM      30.31F
LIMON          CLOUDY    49  29  46 S8        30.30F
MONUMENT HILL  FAIR      50  28  43 CALM      30.34F
TRINIDAD       FAIR      64  20  18 SE7       30.31F
$$

COZ042>045-048>051-090-091-122000-
...NORTHEAST COLORADO...

CITY           SKY/WX    TMP DP  RH WIND       PRES   REMARKS
GREELEY ARPT   FAIR      43  30  61 CALM      30.32F
AKRON          FAIR      48  31  51 E9        30.32F
BURLINGTON     CLOUDY    46  31  55 E12       30.33F
WRAY             N/A     39  32  76 E13       30.38
STERLING       CLOUDY    45  32  61 NE15      30.33F
HOLYOKE        CLOUDY    37  34  87 E9        30.38F
FORT MORGAN    FAIR      50  29  44 E9        30.31F
$$

COZ086-089-092>099-122000-
...SOUTHEAST COLORADO...

CITY           SKY/WX    TMP DP  RH WIND       PRES   REMARKS
PUEBLO         FAIR      56  25  30 VRB3      30.29F
LA JUNTA       FAIR      58  29  33 VRB3      30.30F
LAMAR          FAIR      58  30  34 S6        30.30F
SPRINGFIELD      N/A     60  25  26 S14       30.32F
$$



USA.gov is the U.S. government's official web portal to all federal, state and local government web resources and services.